[[{"header":{"parameterUnit":"m.s-1","parameterCategory":1,"la1":30.2991,"la2":30.254,"lo1":-89.0895,"lo2":-89.0444,"dy":0.0017,"dx":0.0017,"nx":28,"ny":28,"refTime":"2024-05-07T09:00:00:Z","depth":0,"parameterNumber":2,"parameterNumberName":"U-component_of_WINDS"},"data":[0,0,0,0,0,0,0,0,0,0,0,0,0,0,0,0,0,0,0,0,0,0,0,0,0,0,0,0,0,0,0,0,0,0,0,0,0,0,0,0,0,0,0,0,0,0,0,0,0,0,0,0,0,0,0,0,0,0,-1.1961,-1.1961,0,-1.1996,-1.1996,-1.1997,-1.2,-1.1999,-1.1999,-1.1999,-1.2036,-1.2037,-1.2039,0,0,0,0,0,0,0,0,0,0,0,0,0,-1.1899,-1.19,-1.1961,-1.1961,-1.1962,-1.1996,-1.1996,-1.1997,-1.2,-1.1999,-1.1999,-1.1998,-1.2035,-1.2037,-1.2039,0,0,0,0,0,0,0,0,0,0,0,0,0,-1.1929,-1.1901,-1.1961,-1.1967,-1.1968,-1.1996,-1.1996,-1.1997,-1.2,-1.1999,-1.1999,-1.1998,-1.2035,-1.2037,-1.2039,-1.2063,0,0,-1.2045,-1.2046,0,0,0,0,0,0,0,0,-1.1928,-1.1932,-1.1966,-1.1967,-1.1968,-1.1993,-1.1988,-1.2019,-1.2,-1.1988,-1.1999,-1.1998,-1.2022,-1.2025,-1.2033,-1.2064,-1.2066,-1.2045,-1.2046,-1.2047,-1.2048,0,0,0,0,0,0,0,-1.1926,-1.193,-1.1975,-1.1966,-1.1968,-1.1969,-1.1973,-1.1994,-1.2008,-1.1989,-1.1989,-1.1993,-1.2023,-1.2031,-1.2034,-1.2067,-1.2045,-1.2047,-1.2048,-1.2049,-1.2121,-1.2122,0,0,0,0,0,0,-1.1922,-1.1928,-1.1974,-1.1976,-1.1946,-1.1971,-1.1975,-1.1986,-1.2008,-1.201,-1.1994,-1.1993,-1.2028,-1.2032,-1.2035,-1.2066,-1.2047,-1.2049,-1.205,-1.212,-1.2121,-1.2122,0,0,0,0,0,0,-1.1921,-1.1926,-1.1972,-1.1952,-1.1958,-1.1973,-1.1984,-1.1986,-1.1995,-1.2011,-1.2014,-1.2,-1.2028,-1.2032,-1.2056,-1.2067,-1.205,-1.2052,-1.212,-1.2121,-1.2122,-1.2126,0,0,0,0,0,0,-1.1919,-1.1925,-1.1934,-1.1952,-1.1959,-1.1992,-1.1985,-1.1988,-1.1998,-1.1998,-1.2017,-1.202,-1.2028,-1.2053,-1.2058,-1.2069,-1.2053,-1.2119,-1.212,-1.2121,-1.2125,-1.2127,-1.2129,0,0,0,0,0,-1.1917,-1.1934,-1.1934,-1.194,-1.197,-1.1992,-1.1996,-1.2004,-1.1999,-1.2008,-1.2019,-1.202,-1.2065,-1.2055,-1.2061,-1.2073,-1.2118,-1.212,-1.2121,-1.2124,-1.2126,-1.2129,0,0,0,0,0,0,-1.1916,-1.1936,-1.1937,-1.196,-1.1975,-1.1993,-1.2004,-1.2006,-1.2023,-1.2022,-1.2031,-1.2036,-1.2059,-1.2069,-1.2058,-1.2098,-1.2091,-1.2094,-1.2091,-1.2094,-1.2096,-1.2093,-1.2055,0,0,0,0,0,-1.1919,-1.1935,-1.1951,-1.1971,-1.1978,-1.199,-1.2,-1.2005,-1.202,-1.2026,-1.2038,-1.2054,-1.2072,-1.2083,-1.21,-1.2126,-1.2131,-1.2137,-1.2139,-1.2141,-1.2143,-1.2159,-1.2162,-1.2127,-1.2127,-1.2127,0,0,-1.1925,-1.1937,-1.1947,-1.1971,-1.1982,-1.1999,-1.1995,-1.2013,-1.2026,-1.2029,-1.2052,-1.2062,-1.208,-1.2105,-1.2117,-1.2114,-1.2154,-1.2143,-1.2144,-1.2146,-1.2161,-1.2164,-1.2167,-1.2128,-1.2128,-1.2128,0,0,-1.1944,-1.1954,-1.1972,-1.1984,-1.2002,-1.201,-1.2014,-1.2032,-1.2039,-1.2062,-1.2065,-1.2082,-1.2112,-1.2125,-1.2135,-1.2161,-1.2163,-1.2166,-1.2177,-1.2192,-1.2195,-1.2197,-1.2207,-1.221,-1.2169,-1.2169,-1.2169,0,-1.1949,-1.1974,-1.1981,-1.1999,-1.201,-1.2014,-1.2033,-1.2044,-1.2066,-1.2074,-1.2071,-1.2109,-1.2122,-1.2151,-1.2157,-1.2165,-1.2171,-1.2164,-1.2193,-1.2196,-1.2198,-1.2208,-1.2212,-1.2169,-1.2169,-1.2169,-1.2169,0,-1.1979,-1.1997,-1.2009,-1.2031,-1.2043,-1.2061,-1.2073,-1.2085,-1.2089,-1.2098,-1.2122,-1.2137,-1.2158,-1.2166,-1.217,-1.2196,-1.2193,-1.2191,-1.2184,-1.2202,-1.2211,-1.2215,-1.217,-1.217,-1.2169,-1.2169,0,0,-1.1999,-1.2025,-1.2029,-1.2039,-1.206,-1.2074,-1.2093,-1.2113,-1.2124,-1.214,-1.2157,-1.2183,-1.2181,-1.2194,-1.2199,-1.2213,-1.2233,-1.2209,-1.221,-1.2214,-1.2264,-1.2266,-1.227,-1.2235,-1.2235,-1.2236,-1.2263,0,-1.2021,-1.2054,-1.2062,-1.2091,-1.2108,-1.2112,-1.2129,-1.2144,-1.2153,-1.217,-1.218,-1.2199,-1.2195,-1.2203,-1.2216,-1.2228,-1.2244,-1.2226,-1.2251,-1.2252,-1.2247,-1.2275,-1.2276,-1.2301,-1.2266,-1.2267,-1.2268,0,-1.205,-1.2067,-1.2097,-1.2116,-1.2124,-1.2138,-1.2158,-1.2174,-1.2191,-1.2197,-1.2211,-1.2216,-1.2238,-1.223,-1.226,-1.2248,-1.2259,-1.2266,-1.2268,-1.227,-1.2261,-1.2279,-1.2309,-1.2313,-1.2273,-1.2273,-1.2272,0,-1.2062,-1.2092,-1.2114,-1.2123,-1.2146,-1.2156,-1.2166,-1.2183,-1.2195,-1.2213,-1.2221,-1.2241,-1.2252,-1.2268,-1.2279,-1.2272,-1.2309,-1.2301,-1.2315,-1.2315,-1.2323,-1.2322,-1.2355,-1.2329,-1.2329,-1.2329,-1.2329,0,-1.2086,-1.2105,-1.212,-1.2134,-1.2156,-1.2165,-1.2187,-1.2197,-1.2212,-1.2229,-1.2234,-1.225,-1.2263,-1.2281,-1.2289,-1.2314,-1.2319,-1.2325,-1.2327,-1.2324,-1.2324,-1.2332,-1.2331,-1.233,-1.233,-1.233,-1.2329,0,-1.2103,-1.2114,-1.2139,-1.2159,-1.2164,-1.2179,-1.2196,-1.2211,-1.222,-1.2242,-1.2247,-1.2263,-1.2284,-1.2297,-1.2324,-1.2329,-1.2357,-1.2358,-1.2351,-1.2352,-1.2365,-1.2364,-1.2405,-1.2412,-1.238,-1.2381,-1.2381,0,-1.2118,-1.2133,-1.2154,-1.2165,-1.2175,-1.2193,-1.2206,-1.2216,-1.2229,-1.2251,-1.2263,-1.2285,-1.2303,-1.2337,-1.2351,-1.2372,-1.2374,-1.2387,-1.2378,-1.2375,-1.2376,-1.2375,-1.2377,-1.2389,-1.2389,-1.239,-1.239,0,-1.2143,-1.2148,-1.2165,-1.2185,-1.22,-1.2216,-1.2232,-1.2241,-1.2254,-1.2269,-1.2291,-1.2305,-1.2332,-1.2354,-1.2377,-1.2388,-1.2392,-1.2393,-1.2397,-1.2395,-1.2391,-1.2394,-1.2356,-1.2392,-1.2392,-1.2391,-1.2391,-1.2391,-1.2161,-1.2174,-1.2191,-1.2211,-1.2224,-1.2239,-1.2253,-1.2265,-1.2283,-1.2306,-1.2312,-1.2335,-1.2354,-1.2384,-1.2396,-1.2416,-1.2413,-1.2419,-1.2421,-1.2423,-1.2424,-1.2387,-1.242,-1.242,-1.2419,-1.2419,-1.2419,0,-1.2187,-1.2198,-1.2216,-1.2238,-1.2254,-1.2255,-1.2273,-1.2287,-1.2307,-1.2323,-1.2341,-1.2367,-1.2389,-1.2405,-1.2427,-1.244,-1.2442,-1.2445,-1.2445,-1.2447,-1.2424,-1.2418,-1.2443,-1.2443,-1.2443,-1.2443,-1.2443,-1.2443,-1.2203,-1.2226,-1.2233,-1.2263,-1.2275,-1.2297,-1.2308,-1.2322,-1.2335,-1.2364,-1.2382,-1.2392,-1.2409,-1.2433,-1.2453,-1.2457,-1.2466,-1.2469,-1.2474,-1.2451,-1.2449,-1.2447,-1.2441,-1.2471,-1.2471,-1.2496,-1.2496,-1.2496]},{"header":{"parameterUnit":"m.s-1","parameterCategory":1,"la1":30.2991,"la2":30.254,"lo1":-89.0895,"lo2":-89.0444,"dy":0.0017,"dx":0.0017,"nx":28,"ny":28,"refTime":"2024-05-07T09:00:00:Z","depth":0,"parameterNumber":3,"parameterNumberName":"V-component_of_WINDS"},"data":[0,0,0,0,0,0,0,0,0,0,0,0,0,0,0,0,0,0,0,0,0,0,0,0,0,0,0,0,0,0,0,0,0,0,0,0,0,0,0,0,0,0,0,0,0,0,0,0,0,0,0,0,0,0,0,0,0,0,7.0533,7.0533,0,7.0567,7.0567,7.0568,7.0492,7.0489,7.0487,7.0485,7.0515,7.0518,7.0521,0,0,0,0,0,0,0,0,0,0,0,0,0,7.0398,7.0401,7.0533,7.0533,7.0534,7.0567,7.0567,7.0568,7.0492,7.0489,7.0486,7.0484,7.0514,7.0518,7.0522,0,0,0,0,0,0,0,0,0,0,0,0,0,7.0447,7.0402,7.0533,7.05,7.0498,7.0567,7.0567,7.0568,7.0493,7.0489,7.0486,7.0482,7.0513,7.0518,7.0522,7.0623,0,0,7.0536,7.0538,0,0,0,0,0,0,0,0,7.0444,7.0452,7.0505,7.0503,7.05,7.0522,7.0531,7.0586,7.0494,7.0495,7.0485,7.048,7.052,7.0524,7.0538,7.0625,7.0626,7.0537,7.0539,7.0541,7.0543,0,0,0,0,0,0,0,7.0441,7.045,7.0546,7.0505,7.0503,7.0482,7.0485,7.0541,7.0527,7.0494,7.0489,7.0494,7.0518,7.0534,7.0538,7.0627,7.0536,7.0541,7.0543,7.0545,7.0796,7.08,0,0,0,0,0,0,7.0442,7.0447,7.0545,7.0547,7.0463,7.0488,7.0491,7.0518,7.0526,7.0524,7.0497,7.049,7.0528,7.0533,7.0539,7.0657,7.0541,7.0546,7.0548,7.0792,7.0797,7.0801,0,0,0,0,0,0,7.044,7.0452,7.0544,7.0496,7.0506,7.0494,7.0525,7.0521,7.0536,7.0529,7.0525,7.0516,7.0525,7.0532,7.0603,7.0657,7.0548,7.0552,7.0788,7.0794,7.0799,7.0894,0,0,0,0,0,0,7.0436,7.0451,7.0491,7.0498,7.0509,7.0609,7.0528,7.0524,7.0545,7.0537,7.0546,7.0543,7.0523,7.0596,7.0607,7.0661,7.0556,7.0783,7.079,7.0797,7.0886,7.0902,7.0916,0,0,0,0,0,7.0431,7.0516,7.0493,7.0505,7.0559,7.0612,7.0618,7.0594,7.055,7.0588,7.0583,7.0543,7.065,7.0604,7.0616,7.0672,7.0779,7.0788,7.0797,7.0879,7.0899,7.0916,0,0,0,0,0,0,7.0514,7.0516,7.0491,7.058,7.0597,7.0599,7.0647,7.0616,7.0645,7.0635,7.0603,7.0605,7.0681,7.0684,7.0633,7.0769,7.0706,7.0718,7.0765,7.0784,7.0799,7.0796,7.0559,0,0,0,0,0,7.0543,7.0588,7.0586,7.0665,7.0675,7.066,7.0682,7.0662,7.0677,7.0684,7.0683,7.0699,7.0735,7.076,7.0793,7.0886,7.0886,7.093,7.0946,7.0958,7.0968,7.1016,7.1035,7.083,7.083,7.083,0,0,7.0602,7.0609,7.0639,7.0682,7.0692,7.0738,7.0666,7.0718,7.0751,7.0691,7.0757,7.0758,7.0772,7.0854,7.089,7.0859,7.1025,7.0969,7.098,7.0983,7.1027,7.1046,7.1064,7.0836,7.0835,7.0834,0,0,7.0734,7.0745,7.081,7.0823,7.084,7.0829,7.0845,7.0852,7.0851,7.0917,7.0873,7.0911,7.0975,7.0987,7.1001,7.1137,7.1101,7.1149,7.1228,7.1275,7.1291,7.1305,7.1352,7.1369,7.1159,7.1159,7.1159,0,7.0805,7.0874,7.0848,7.0903,7.0922,7.0871,7.0937,7.0949,7.0976,7.0989,7.0954,7.1033,7.1039,7.1122,7.1155,7.1169,7.1185,7.1147,7.1291,7.1305,7.1318,7.1362,7.138,7.1165,7.1164,7.1164,7.1163,0,7.096,7.1008,7.1059,7.1087,7.1112,7.1172,7.1153,7.1182,7.1159,7.1152,7.1219,7.1225,7.1258,7.1277,7.1255,7.1357,7.1336,7.1297,7.1232,7.1343,7.1384,7.1401,7.1173,7.1171,7.1169,7.1168,0,0,7.1144,7.1157,7.1176,7.1188,7.1203,7.1239,7.1295,7.1329,7.1353,7.1373,7.1418,7.1474,7.1437,7.1453,7.1432,7.1474,7.1579,7.1429,7.1428,7.1455,7.169,7.1719,7.1739,7.1556,7.1559,7.1561,7.1688,0,7.1274,7.1373,7.135,7.1447,7.149,7.1442,7.1491,7.1505,7.15,7.1534,7.1527,7.1567,7.1516,7.1525,7.1564,7.1558,7.1626,7.1549,7.1596,7.1598,7.1593,7.1761,7.1792,7.1911,7.1704,7.1707,7.1709,0,7.1438,7.1465,7.1566,7.1573,7.159,7.1635,7.1663,7.1697,7.1711,7.1704,7.1723,7.1693,7.1748,7.1684,7.1758,7.1706,7.1724,7.1724,7.1728,7.173,7.1659,7.1766,7.1948,7.1966,7.1734,7.1732,7.173,0,7.156,7.1622,7.169,7.1702,7.1712,7.1744,7.175,7.176,7.1781,7.1805,7.1818,7.1849,7.1865,7.1888,7.1867,7.1823,7.1943,7.1878,7.1938,7.1938,7.1964,7.1963,7.2151,7.1978,7.1978,7.1978,7.1977,0,7.1706,7.177,7.1745,7.1787,7.1856,7.1829,7.1898,7.1898,7.1907,7.1947,7.1907,7.1945,7.1916,7.1951,7.1935,7.1997,7.2005,7.2,7.1995,7.2003,7.2003,7.2013,7.2004,7.1983,7.1981,7.1981,7.198,0,7.1854,7.1841,7.1912,7.1916,7.1918,7.1969,7.1971,7.2009,7.2001,7.2052,7.2062,7.2049,7.2088,7.2069,7.211,7.2099,7.2179,7.2163,7.2175,7.217,7.223,7.2224,7.243,7.2455,7.2268,7.227,7.2271,0,7.1948,7.1996,7.2005,7.2029,7.2038,7.2077,7.2099,7.2074,7.2097,7.2116,7.2152,7.2187,7.2215,7.2279,7.2272,7.2302,7.2286,7.2356,7.229,7.2297,7.2285,7.2282,7.2286,7.2369,7.2371,7.2373,7.2374,0,7.2115,7.2106,7.2139,7.217,7.2197,7.2219,7.2238,7.226,7.2236,7.2264,7.2304,7.2325,7.2367,7.2402,7.2429,7.2432,7.2399,7.2395,7.241,7.2418,7.2423,7.242,7.2209,7.239,7.2389,7.2388,7.2387,7.2386,7.2238,7.2277,7.229,7.2328,7.234,7.2358,7.2394,7.239,7.2423,7.2456,7.2439,7.2485,7.2496,7.2528,7.2536,7.2571,7.2543,7.2565,7.2571,7.2576,7.2584,7.2418,7.2576,7.2575,7.2575,7.2574,7.2574,0,7.2401,7.2407,7.2442,7.247,7.25,7.2467,7.2486,7.2512,7.2554,7.2567,7.2595,7.264,7.2674,7.267,7.2701,7.2729,7.2714,7.2738,7.2735,7.2736,7.2607,7.2591,7.2749,7.2749,7.2749,7.2749,7.2749,7.2749,7.249,7.2555,7.2547,7.2617,7.2621,7.2667,7.268,7.2697,7.2707,7.276,7.2788,7.2786,7.2792,7.2822,7.2851,7.2849,7.2862,7.2891,7.2883,7.2762,7.2745,7.2729,7.2713,7.2894,7.2894,7.3008,7.3009,7.301]}]]